Regional Weather Roundup
Issued by NWS Green Bay, WI

Home | Current Version | Previous Version | Graphics & Text | Print | Product List | Glossary Off
Versions: 1 2 3 4 5 6 7 8 9 10 11 12 13 14 15 16 17 18 19 20 21 22 23 24 25 26 27 28 29 30 31 32 33 34 35 36 37 38 39 40 41 42 43 44 45 46 47 48 49 50

000
ASUS43 KGRB 240059
RWRGRB

NORTH-CENTRAL AND NORTHEAST WISCONSIN REGIONAL WEATHER ROUNDUP
NATIONAL WEATHER SERVICE GREEN BAY WI
800 PM CDT WED JUL 23 2014

WIZ005-009-010>012-018-019-240200-
NORTH CENTRAL WISCONSIN

CITY           SKY/WX    TMP DP  RH WIND       PRES   REMARKS
IRONWOOD       NOT AVBL
MANITOWISH WTR NOT AVBL
ARBOR VITAE    NOT AVBL
EAGLE RIVER    NOT AVBL
LAND O LAKES   NOT AVBL
RHINELANDER    CLEAR     66  53  63 NE3       30.19F
PHILLIPS       NOT AVBL
ANTIGO         NOT AVBL
TOMAHAWK       NOT AVBL
MERRILL        NOT AVBL
$$

WIZ013-073-240200-
NORTHEAST WISCONSIN

CITY           SKY/WX    TMP DP  RH WIND       PRES   REMARKS
IRON MOUNTAIN  PTCLDY    66  47  50 N3        30.16F
MARINETTE      CLEAR     66  52  59 E6        30.16S
$$

WIZ017-030-035>037-045-240200-
CENTRAL WISCONSIN

CITY           SKY/WX    TMP DP  RH WIND       PRES   REMARKS
MEDFORD        NOT AVBL
WAUSAU         CLEAR     72  52  49 N5        30.15S
MOSINEE        PTCLDY    70  55  60 VRB6      30.17F
MARSHFIELD     CLEAR     71  56  58 NE5       30.16S
WISC RAPIDS    CLEAR     74  54  49 N5        30.16S
STEVENS POINT  NOT AVBL
WAUPACA        NOT AVBL
SHAWANO        NOT AVBL
CLINTONVILLE   NOT AVBL
$$

WIZ038-039-048-051-240200-
FOX VALLEY

CITY           SKY/WX    TMP DP  RH WIND       PRES   REMARKS
NWS GREEN BAY  CLEAR     67  52  58 NE8       30.16S
APPLETON       PTCLDY    72  48  43 E7        30.16S
OSHKOSH        CLEAR     70  53  54 E6        30.15S
FOND DU LAC    CLEAR     66  53  63 SE7       30.16S
$$

WIZ022-050-052-240200-
EAST CENTRAL WISCONSIN

CITY           SKY/WX    TMP DP  RH WIND       PRES   REMARKS
STURGEON BAY   CLEAR     64  48  55 E6        30.17S
MANITOWOC      NOT AVBL
SHEBOYGAN      CLEAR     61  50  67 NE6       30.17S
$$

LMZ563-521-522-541>543-240200-
LAKESHORE

STATION/POSITION TIME  TEMP    WIND        PRES    VSBY  WAVE
                       AIR SEA DIR/SP/G                  HT/PER
                 (UTC) (F)     (DEG/KT/KT) (MB)    (MI)  (FT/S)
SHEBOYGAN LKSHOR 0000   60     350/  7/  8 1021.7F
KEWAUNEE LKSHORE 0000   62      CALM  /  3 1022.2S
TWO RIVERS CG    0000   61                   N/A       6   2
NORTHPORT PIER   0000   68      20/ 10/ 14 1021.3S
N MID LAKE BUOY  0000   58 53  330/  8/ 10 1020.9S         1/ 3
STURGEON BAY CG  0000   61 66   30/  7     1021.2      6   1
CHAMBERS ISLAND  0000   67      40/ 11/ 14 1021.3S
MENOMINEE LKSHOR 0000   68      50/ 10/ 13 1022.0R
$$



USA.gov is the U.S. government's official web portal to all federal, state and local government web resources and services.